Flag Weather past 2 weeks in Khabarovsk, Russia

Now
9 °F

Clear.


Feels Like: -6 °F
Forecast: 4 / 16 °F
Wind: 10 mph from Southwest

Location: Habarovsk

Current Time: Nov 28, 2014 at 3:37:28 AM

Latest Report: Nov 28, 2014 at 3:00 AM


Visibility: 10 mi

Pressure: 30.30 "Hg

Humidity: 56%

Dew point: -4 °F

Location of KhabarovskLocation

Historic Weather in Khabarovsk — Graph

°F

Khabarovsk temperature yesterday

Maximum temperature yesterday: 34 °F (at 9:30 AM)
Minimum temperature yesterday: 3 °F (at 12:00 AM)
Average temperature yesterday: 20 °F

Past Weeks' High & Low Weather Summary

 TemperatureHumidityPressure
High34 °F (Nov 27, 9:30 AM)100% (Nov 13, 4:30 AM)30.27 "Hg (Nov 13, 4:30 AM)
Low-8 °F (Nov 18, 6:00 AM)45% (Nov 27, 11:00 PM)29.09 "Hg (Nov 13, 7:00 AM)
Average12 °F79%30.04 "Hg
* Reported Nov 13 2:00 AM — Nov 28 2:30 AM, Khabarovsk, Weather by CustomWeather, © 2014

Note: Actual official high and low records may vary slightly from our data, if they occured in-between our weather recording intervals... More about our weather records

Advertising

Khabarovsk weather history for previous 24 hours

 ConditionsComfort  
Time TempWeatherWind HumidityBarometerVisibility
2:30 AM
Nov 28
10 °FClear.10 mph52%30.27 "Hg10 mi
2:00 AM12 °FClear.13 mph48%30.27 "Hg10 mi
1:30 AM12 °FClear.13 mph52%30.27 "Hg10 mi
1:00 AM12 °FClear.13 mph52%30.27 "Hg10 mi
12:30 AM12 °FClear.13 mph52%30.27 "Hg10 mi
12:00 AM14 °FClear.15 mph48%30.27 "Hg10 mi
11:30 PM
Nov 27
14 °FClear.15 mph48%30.27 "Hg10 mi
11:00 PM16 °FClear.15 mph45%30.24 "Hg10 mi
10:30 PM14 °FClear.15 mph52%30.24 "Hg10 mi
10:00 PM16 °FClear.15 mph48%30.24 "Hg10 mi
9:30 PM18 °FClear.17 mph49%30.24 "Hg10 mi
9:00 PM18 °FClear.17 mph53%30.21 "Hg10 mi
8:30 PM18 °FClear.17 mph58%30.21 "Hg10 mi
8:00 PM19 °FClear.20 mph58%30.18 "Hg10 mi
7:30 PM19 °FClear.20 mph58%30.18 "Hg10 mi
7:00 PM19 °FClear.17 mph63%30.18 "Hg10 mi
6:30 PM21 °FClear.17 mph54%30.15 "Hg10 mi
6:00 PM21 °FSunny.15 mph63%30.15 "Hg10 mi
5:30 PM23 °FSunny.20 mph58%30.15 "Hg10 mi
5:00 PM23 °FSunny.15 mph63%30.12 "Hg10 mi
4:30 PM23 °FSunny.17 mph68%30.09 "Hg10 mi
4:00 PM25 °FSunny.20 mph59%30.09 "Hg10 mi
3:30 PM25 °FSunny.22 mph59%30.09 "Hg10 mi
3:00 PM27 °FSunny.22 mph54%30.07 "Hg10 mi
2:30 PM27 °FScattered clouds.17 mph59%30.07 "HgN/A
2:00 PM27 °FScattered clouds.15 mph69%30.04 "HgN/A
1:30 PM27 °FPartly sunny.15 mph69%30.04 "HgN/A
12:30 PM28 °FBroken clouds.22 mph80%30.01 "HgN/A
12:00 PM28 °FBroken clouds.22 mph80%30.01 "HgN/A
11:30 AM28 °FMostly cloudy.22 mph86%30.01 "HgN/A
11:00 AM30 °FMostly cloudy.22 mph86%29.98 "HgN/A
10:30 AM32 °FMostly cloudy.17 mph87%29.98 "HgN/A
9:30 AM34 °FMostly cloudy.8 mph81%29.95 "HgN/A
9:00 AM32 °FMostly cloudy.6 mph87%29.95 "HgN/A
8:30 AM32 °FMostly cloudy.6 mph87%29.92 "HgN/A
8:00 AM32 °FMostly cloudy.10 mph87%29.92 "HgN/A
7:30 AM32 °FMostly cloudy.6 mph87%29.92 "HgN/A
7:00 AM32 °FMostly cloudy.6 mph87%29.92 "HgN/A
6:30 AM30 °FMostly cloudy.6 mph86%29.89 "HgN/A
6:00 AM30 °FSnow flurries. Mostly cloudy.8 mph86%29.89 "HgN/A
5:30 AM19 °FSnow flurries. Overcast.3 mph86%29.89 "Hg2 mi
5:00 AM12 °FSnow flurries. Mostly cloudy.1 mph85%29.89 "HgN/A
4:30 AM10 °FMostly cloudy.1 mph79%29.92 "HgN/A
4:00 AM9 °FOvercast.3 mph78%29.89 "HgN/A
3:30 AM7 °FClear.3 mph85%29.89 "Hg10 mi
3:00 AM7 °FClear.1 mph78%29.89 "Hg10 mi
Weather by CustomWeather, © 2014

See weather overviewHow to use our weather pages